User: anonymous
Location: Unspecified
(0.0000°N, 0.0000°E)
Time: 16:03:10
(UTC+00:00)
Language:

GOSAT - Orbit

View from above orbital plane
View from above orbital plane
View from above satellite
View from above satellite

Ground track
Ground track

The orbit data is extracted from the following two-line orbital elements,

1 33492U 09002A   14238.36126200 -.00000136  00000-0 -15558-4 0  8573
2 33492 098.0555 346.7670 0001377 073.7142 286.4221 14.67555009299377
Epoch (UTC): 26 August 2014 08:40:13
Eccentricity: 0.0001377
inclination: 98.0555°
perigee height: 668 km
apogee height: 670 km
right ascension of ascending node: 346.7670°
argument of perigee: 73.7142°
revolutions per day: 14.67555009
mean anomaly at epoch: 286.4221°
orbit number at epoch: 29937

The dashed part of the orbit path shows where the satellite is in the earth's shadow,  

DLR